Dewpoint
27 17 17 16 16 15 17 20 19 21 19 20 20 20 24 24 24 31 39 49 53 51 51 52 53 52 52 52 52 54 59 60 60 60 60 61 63 63 63 64 64 63 63 65 66 67 67 67 67 68 68 68 68 69 69 70 70 70 70 71 70 71 71 71 71 71 71 70 71 71 70 70 71 71 72 72 72 73 73 73 72 73 73 74 74 73
18 15 13 16 16 16 15 19 20 18 17 16 15 17 19 24 20 26 29 48 53 49 47 50 50 50 51 52 51 56 58 58 59 59 59 60 62 63 63 63 64 64 65 66 66 67 67 67 68 68 68 69 67 68 69 69 70 70 70 70 70 71 71 71 71 71 71 71 71 70 70 70 71 71 71 71 72 72 73 73 73 73 74 74 74 74
12 10 10 12 16 16 17 17 17 15 15 16 14 20 19 17 25 28 41 46 53 49 46 47 47 47 48 49 48 54 57 57 58 59 59 59 61 62 62 63 63 63 63 64 64 66 67 67 68 68 67 67 66 67 68 69 69 69 70 70 71 70 70 71 71 71 71 71 71 71 71 70 71 71 72 72 72 73 73 73 73 74 74 75 74 74
14 6 7 9 13 14 14 15 15 16 17 14 13 17 13 26 16 16 34 49 51 48 45 46 46 45 47 50 52 53 56 57 58 59 59 60 60 61 61 62 62 62 62 63 64 65 67 67 67 68 67 67 67 68 67 68 68 69 70 70 70 70 70 70 72 72 71 71 72 72 72 71 71 71 72 73 73 72 72 72 73 73 74 75 74 74
6 10 16 13 13 12 12 15 14 14 11 14 13 13 13 13 16 15 25 45 46 45 47 42 40 36 41 41 44 53 57 58 58 58 59 59 60 61 61 61 61 62 62 63 64 65 66 67 67 67 67 67 66 67 66 67 68 68 68 69 70 70 71 71 72 72 71 72 71 72 72 72 72 72 72 71 71 71 72 72 72 72 73 74 74 74
5 6 8 6 13 14 13 14 14 13 12 13 13 13 13 13 14 15 33 42 41 41 44 39 27 30 38 44 46 49 54 55 57 56 56 57 58 59 59 59 61 62 62 63 63 64 66 67 67 67 67 66 66 66 66 67 68 68 68 69 69 70 70 71 72 72 71 71 71 71 70 70 70 70 70 70 70 71 71 71 72 72 73 74 74 74
4 10 6 7 9 13 14 12 13 14 12 13 12 14 13 13 11 35 41 40 37 35 42 39 27 27 35 41 45 51 53 54 55 55 56 57 57 58 58 59 59 61 62 63 64 64 66 67 67 67 67 66 66 66 67 67 68 68 69 69 69 69 70 70 71 71 72 71 71 70 70 69 69 69 70 70 71 71 71 72 72 72 72 74 74 74
17 17 15 17 16 13 13 12 13 13 13 12 14 13 13 12 14 34 40 38 39 44 40 42 34 27 30 32 46 50 52 52 53 53 54 56 57 57 58 58 59 61 63 63 64 64 65 67 67 67 67 66 66 67 67 67 67 68 69 69 69 69 70 70 70 71 71 71 70 70 70 70 69 69 69 70 71 71 72 71 71 71 72 74 74 74
19 19 19 18 17 15 12 13 15 14 12 13 14 8 9 14 19 36 37 34 36 33 28 36 40 30 36 39 46 52 50 51 51 52 53 54 56 57 58 59 60 61 63 64 64 64 65 66 67 67 67 67 67 67 67 67 67 68 69 70 70 69 70 70 70 70 71 71 70 70 70 69 70 69 70 71 71 71 72 71 71 72 72 73 74 74
20 18 18 18 15 14 14 13 15 14 13 13 21 31 33 36 35 33 30 32 31 26 26 31 38 29 29 35 44 49 50 50 51 51 51 54 55 57 58 60 61 62 64 65 64 64 65 66 67 67 68 68 67 67 68 69 69 68 69 69 70 69 70 69 70 70 70 71 71 70 69 69 69 70 70 71 71 71 71 71 71 72 72 72 73 73
18 46 35 19 17 16 16 15 14 14 13 17 19 23 24 28 34 44 37 34 31 24 27 30 35 30 25 35 41 44 46 50 49 50 52 56 57 58 59 60 61 63 64 64 64 65 65 66 67 67 67 67 68 68 69 68 68 68 68 69 69 69 70 70 70 70 70 70 70 70 70 69 69 69 69 70 70 70 71 70 71 71 72 72 72 72
17 18 25 32 29 22 16 17 18 15 15 12 12 18 19 24 31 30 33 33 23 23 27 31 34 30 26 31 37 45 50 50 51 49 50 52 56 58 60 60 60 62 63 64 64 64 65 66 66 67 67 67 68 68 68 68 68 68 68 68 68 69 70 70 70 70 70 70 70 70 70 69 69 69 69 69 69 70 70 70 70 71 72 72 72 72
14 14 17 17 45 20 17 14 13 11 12 13 20 24 14 17 26 22 26 20 20 21 28 37 38 33 31 30 37 41 42 46 52 53 52 53 55 57 60 60 60 61 63 64 64 64 65 65 65 66 66 67 68 68 68 68 68 68 68 68 68 68 69 70 71 70 70 70 70 70 70 70 70 70 69 69 69 70 70 70 71 71 71 71 72 72
13 16 17 16 16 27 15 12 13 8 9 9 9 17 12 10 13 13 23 25 20 22 31 34 38 32 35 33 38 39 43 43 46 52 55 55 55 57 60 61 61 61 62 63 64 64 64 65 65 65 66 66 67 68 69 69 68 68 68 68 68 68 69 70 71 71 70 70 71 71 70 70 70 70 69 69 69 69 70 71 70 71 71 71 71 71
13 11 13 15 10 16 15 13 11 11 8 8 12 9 12 18 13 11 20 13 12 25 31 40 28 27 27 29 42 44 45 51 50 49 55 57 58 59 61 61 61 62 62 63 63 63 64 64 64 65 66 66 67 68 69 69 69 68 68 68 68 68 69 70 70 70 70 70 71 71 70 70 70 71 71 69 70 70 70 70 70 71 71 71 71 71
12 13 14 17 16 14 14 16 13 11 10 11 14 12 11 13 23 12 23 22 27 27 27 31 29 32 31 38 49 52 54 55 58 56 58 57 58 60 60 61 61 61 62 63 63 63 64 64 64 66 67 67 67 68 68 69 68 68 68 68 68 68 69 69 70 70 70 70 70 71 70 70 71 71 70 71 71 70 70 70 70 71 72 71 71 72
20 13 14 15 18 14 13 19 15 11 11 14 9 10 10 17 33 36 41 33 32 27 25 35 32 33 38 36 46 51 51 52 54 55 55 56 57 58 59 60 60 61 62 63 63 63 63 64 65 66 67 68 69 68 68 68 69 68 68 68 68 68 69 69 70 70 70 70 70 70 71 71 70 70 70 69 69 70 70 70 70 71 71 71 72 71
13 11 14 15 12 15 14 17 15 16 13 9 11 9 20 25 26 21 17 25 26 21 26 33 31 34 29 28 44 45 48 49 52 53 56 55 56 57 58 59 60 60 61 62 63 63 64 64 65 67 68 69 69 69 69 69 69 68 68 68 68 68 68 69 70 70 70 70 70 70 70 70 70 70 70 71 70 70 70 70 70 71 71 71 71 71
14 12 13 15 14 14 20 12 10 13 17 10 9 16 10 17 15 20 24 21 20 20 24 30 36 39 35 33 38 38 45 47 49 52 53 53 55 56 57 58 58 59 60 61 62 63 64 64 65 67 68 69 69 69 69 69 69 68 68 68 68 68 69 69 69 70 70 70 69 70 70 70 70 70 71 71 71 70 69 69 70 70 71 71 72 72
18 14 14 16 14 16 16 13 12 11 12 16 14 11 23 18 22 20 19 26 23 20 24 25 31 28 39 38 39 37 43 46 48 50 51 52 53 55 57 57 57 58 59 60 62 63 64 65 66 67 68 69 69 69 69 69 69 69 69 69 69 69 69 69 70 70 69 69 69 69 70 70 71 71 71 70 70 70 69 69 69 70 70 71 71 71
15 19 14 16 17 14 15 20 10 13 10 13 16 11 17 25 25 19 24 22 22 26 26 25 23 30 34 39 41 39 40 45 48 49 51 52 54 55 56 57 57 58 59 60 61 63 65 66 67 68 68 69 69 70 69 68 68 69 69 69 70 70 70 70 70 70 70 70 70 70 69 70 70 70 71 71 71 70 70 69 70 70 70 71 71 71
20 21 14 19 14 14 11 17 15 13 13 11 9 11 10 16 19 17 20 25 31 26 24 21 22 29 35 46 43 39 41 46 49 49 50 52 54 54 56 56 57 58 60 61 63 64 65 66 67 68 69 69 69 69 68 68 68 68 68 69 69 70 70 70 70 71 71 71 71 70 70 70 70 71 70 70 71 71 70 69 70 70 70 70 71 70
18 22 18 16 14 13 13 14 23 20 16 13 17 17 15 17 19 20 12 20 31 35 33 30 23 27 37 45 48 46 46 47 49 50 51 52 54 54 55 57 58 60 61 63 64 65 65 66 67 68 68 68 69 69 69 69 68 68 69 68 69 69 69 70 70 71 71 71 71 70 70 70 70 71 71 70 70 70 71 70 70 70 70 70 70 70
46 24 20 22 30 34 30 28 26 25 20 19 20 22 19 20 16 16 20 23 29 32 29 26 28 26 38 49 53 53 51 51 50 51 51 52 54 55 56 56 58 60 62 64 64 64 65 66 67 67 68 68 68 68 68 68 69 69 69 69 68 68 69 69 70 71 70 70 70 70 70 70 70 70 71 70 71 71 71 71 71 72 71 71 72 72
24 25 23 18 20 24 23 25 24 28 24 24 21 24 23 26 27 24 30 32 26 30 31 24 22 26 35 48 52 52 53 52 51 52 53 52 54 55 56 58 60 61 62 63 63 64 64 65 65 66 67 67 68 68 68 68 68 68 69 69 68 68 68 68 69 70 70 70 70 70 70 70 70 70 70 70 71 71 71 72 71 71 71 71 72 71
27 34 23 14 15 14 14 15 21 22 21 28 27 22 25 22 24 27 23 32 21 33 31 27 26 30 33 42 48 50 50 49 50 54 56 54 54 56 58 59 60 61 61 62 63 63 64 64 65 65 66 67 67 68 68 68 68 68 69 69 69 69 69 69 69 69 69 69 69 70 70 70 70 70 70 70 71 71 71 71 71 71 71 71 71 71
32 39 35 31 23 19 21 29 33 37 24 21 22 30 22 28 30 31 29 26 21 31 30 34 32 30 29 32 41 46 49 47 46 50 53 54 56 58 59 60 60 60 61 62 63 63 63 63 64 65 65 66 66 67 67 68 68 68 68 68 69 69 69 69 69 69 69 68 69 69 69 70 70 70 70 70 71 71 71 71 71 71 70 71 71 71
36 31 32 34 29 24 25 32 28 36 23 23 26 23 24 26 28 27 26 25 33 27 24 38 40 32 28 30 37 45 47 48 48 49 52 54 56 58 59 62 65 61 61 61 61 62 63 63 64 64 65 65 65 66 66 67 68 68 68 68 69 69 69 69 69 69 69 68 68 69 70 70 70 70 70 71 71 71 71 71 71 71 71 71 70 70
34 31 33 28 29 29 28 29 33 26 23 24 24 27 32 28 27 26 30 30 30 26 26 33 40 35 34 30 32 42 46 47 47 47 53 55 58 59 60 61 61 61 61 61 61 62 62 62 63 64 64 65 66 66 66 66 67 68 69 69 69 69 69 70 69 69 69 69 68 69 69 70 70 70 70 70 70 70 71 71 71 71 71 71 71 70
35 33 39 32 30 30 29 31 27 24 26 25 26 25 26 26 26 26 28 33 27 33 36 32 41 34 31 31 34 40 46 48 50 53 56 56 58 60 60 60 61 61 61 61 61 62 62 62 63 63 64 65 65 65 65 66 67 68 69 69 69 69 70 70 69 69 69 69 69 69 70 70 70 70 70 70 70 70 70 70 71 71 71 71 71 71
32 36 41 34 33 32 31 33 28 29 31 28 26 30 29 24 28 32 30 32 39 32 39 41 39 39 39 42 39 48 51 51 52 52 52 55 58 60 60 60 61 61 61 62 62 62 62 63 63 63 64 64 65 65 65 66 66 68 69 69 69 69 70 70 69 68 68 69 69 69 70 70 70 70 70 70 69 70 70 70 70 69 69 70 70 70
34 34 36 36 29 30 31 29 29 30 30 28 29 30 31 29 29 30 31 34 32 31 37 39 33 36 37 44 52 51 51 49 48 50 51 54 58 60 60 60 61 61 62 62 62 62 62 63 63 63 64 64 65 66 65 65 66 68 69 69 69 69 69 69 68 68 68 69 69 69 69 69 69 69 68 68 68 69 69 69 69 69 69 69 69 69
34 33 31 31 28 31 32 32 32 28 26 26 30 29 31 31 33 30 33 40 38 33 35 31 29 37 40 49 49 48 50 50 50 50 50 54 58 60 59 60 61 62 62 62 63 63 63 63 63 63 64 65 65 66 66 66 66 68 69 69 69 69 69 68 68 68 68 68 69 68 68 68 68 68 67 68 68 68 69 68 68 69 69 69 69 69
37 33 32 35 28 31 31 32 32 27 24 28 35 30 32 28 29 29 30 29 31 37 37 38 35 39 42 46 47 45 49 49 49 50 51 51 56 59 60 61 61 62 62 63 63 64 64 64 64 64 64 65 65 66 67 67 66 68 69 69 70 69 69 69 68 68 68 68 68 69 69 69 69 68 67 68 68 68 68 68 68 69 69 69 69 69
39 36 32 35 29 29 32 31 28 25 26 36 39 37 34 31 30 28 34 31 36 40 45 48 48 48 47 44 44 46 48 50 51 52 52 54 56 58 59 60 61 61 62 62 63 63 64 64 64 64 64 65 65 66 67 67 68 68 69 69 69 69 69 69 68 68 68 68 68 69 69 69 69 69 68 68 68 68 68 68 68 69 69 69 68 68
31 33 35 33 33 31 27 29 22 26 34 36 32 37 41 34 36 33 34 36 40 45 47 48 48 49 50 48 46 48 49 49 51 54 54 54 57 57 59 60 60 61 61 61 62 63 64 64 64 64 65 66 67 66 67 67 67 67 68 69 69 69 69 69 68 68 68 68 68 68 69 69 69 69 69 69 68 68 67 68 68 68 69 69 69 69
32 37 34 28 33 27 30 28 26 36 27 28 36 42 42 41 42 37 31 33 37 46 49 49 50 50 50 49 49 52 53 52 49 47 54 54 56 58 58 59 59 60 60 60 62 63 64 65 65 65 66 66 66 66 67 67 68 67 67 68 68 69 69 68 68 68 68 69 69 69 69 69 69 69 69 69 69 68 68 68 68 69 70 69 69 69
36 31 34 28 30 33 28 25 26 24 25 32 36 42 44 46 47 46 36 34 41 49 52 52 52 51 50 50 52 53 51 45 42 42 48 53 55 56 58 58 58 59 59 59 62 64 65 65 65 66 66 66 67 67 67 68 68 68 68 68 68 68 68 68 68 68 68 69 69 69 69 69 69 70 70 69 69 69 69 69 69 69 70 69 69 69
37 37 36 30 31 29 28 25 25 24 30 36 46 48 49 49 48 49 34 30 41 52 55 55 54 53 51 50 52 51 46 42 40 47 48 51 55 55 56 56 56 56 57 59 62 63 64 65 65 67 67 67 67 67 67 68 69 69 68 69 68 69 68 69 69 69 69 69 69 69 69 69 69 69 69 69 69 69 69 69 69 70 70 70 70 69
43 42 34 32 30 33 29 25 25 29 28 47 49 50 51 51 51 34 28 31 48 53 55 56 56 54 52 51 52 49 44 39 41 46 48 50 52 55 55 55 55 55 57 60 63 64 65 67 68 67 66 67 67 68 68 69 69 69 69 69 69 69 69 69 70 70 70 70 69 69 69 69 69 69 69 69 69 69 69 70 70 69 69 70 70 69
41 42 39 31 31 34 34 28 27 28 42 49 50 51 52 50 41 30 29 37 50 55 57 57 56 56 54 53 53 49 50 50 51 53 54 53 54 55 55 56 55 57 58 61 63 68 66 66 67 66 66 67 67 68 69 69 69 70 70 69 68 69 69 70 70 70 69 69 69 69 69 69 69 69 69 70 70 70 70 70 69 69 69 69 69 69
39 41 42 40 39 38 33 28 28 31 42 49 51 52 53 42 29 31 44 49 52 57 57 58 56 56 56 56 56 55 56 57 58 57 54 52 53 54 55 55 59 62 64 65 66 67 66 66 66 66 66 67 67 68 69 70 70 70 70 69 68 69 70 69 69 69 68 68 68 68 69 69 69 69 69 70 70 70 70 69 69 69 69 69 69 69
38 40 36 37 40 39 37 33 30 29 40 49 51 51 53 46 50 53 55 55 57 57 57 57 57 56 56 54 57 57 57 57 57 57 57 55 52 55 58 58 59 61 63 65 66 67 66 66 66 66 67 67 68 68 69 69 70 70 70 68 69 69 69 68 68 68 67 67 67 68 68 69 70 70 70 70 70 70 70 69 69 69 70 69 69 68
42 38 35 37 42 38 36 36 37 43 46 49 52 51 54 55 55 55 56 55 56 57 57 57 56 57 58 57 55 56 57 56 56 57 57 57 57 54 57 59 61 62 64 65 65 66 67 65 66 66 67 68 68 69 69 68 69 70 69 69 69 68 69 68 67 67 67 68 67 67 67 68 69 70 70 70 70 70 69 69 70 70 70 70 69 69
42 39 39 33 38 41 41 44 46 46 50 51 54 54 54 55 56 56 56 56 57 56 58 58 57 59 59 57 56 56 54 56 57 57 56 57 58 57 56 59 60 61 62 64 65 67 67 65 66 66 67 68 69 69 69 69 69 70 70 69 69 69 68 67 67 67 67 67 67 67 67 67 68 69 69 70 70 70 69 69 70 69 70 70 69 69
44 42 41 40 40 45 46 46 48 44 45 49 52 55 57 57 57 58 57 56 57 58 58 59 59 60 59 58 57 56 56 57 56 56 57 57 57 58 60 60 60 61 63 64 65 67 67 66 66 66 67 68 69 69 70 69 69 70 70 68 70 69 68 67 67 67 67 67 67 67 67 67 67 68 69 69 70 70 70 70 70 69 68 69 69 69
39 41 36 33 41 32 33 46 38 41 46 52 53 52 54 59 56 57 57 57 57 57 57 57 60 60 59 58 58 59 58 58 57 56 57 57 57 58 59 60 60 61 63 63 65 66 66 66 65 66 67 68 69 69 70 69 68 70 69 69 69 68 68 68 68 68 67 67 67 67 66 66 66 66 68 69 69 70 69 69 69 69 68 68 68 67
35 41 34 38 40 34 35 37 39 42 46 53 56 50 47 49 48 51 55 56 58 59 59 59 60 58 58 56 58 59 58 57 57 57 57 57 58 59 59 60 61 61 62 64 65 66 66 66 65 66 67 67 69 69 69 69 69 68 68 69 69 68 68 69 69 68 67 67 67 67 66 66 69 68 67 68 68 67 67 67 68 68 68 68 68 67
38 42 33 38 36 38 39 42 41 39 47 49 46 47 46 45 49 47 51 53 55 56 56 58 59 58 58 58 58 59 57 55 57 58 57 57 58 59 60 61 61 61 62 63 65 66 66 66 66 66 66 67 68 69 69 69 68 68 67 68 68 68 68 68 69 68 67 67 67 67 68 67 69 67 67 66 65 64 65 66 67 67 67 68 68 68
37 35 38 38 36 35 35 37 40 37 41 43 45 43 41 41 43 45 48 52 55 54 54 56 57 57 58 60 58 59 57 56 57 57 57 57 58 59 61 62 62 62 62 63 65 66 67 67 66 66 66 67 67 68 68 68 67 67 67 67 68 68 68 69 69 67 67 67 67 67 68 67 68 66 66 65 65 64 63 60 52 54 66 67 65 61
36 37 37 35 35 34 37 38 40 41 43 45 46 43 41 41 44 45 48 52 54 53 54 57 57 57 57 57 58 60 58 59 59 58 58 57 58 60 62 62 62 63 63 63 64 66 66 67 67 67 67 66 66 67 67 67 66 66 66 67 67 68 68 68 68 67 67 67 67 67 68 67 67 66 65 65 65 64 64 64 61 45 47 56 57 50